Probability
0 1 1 1 0 1 2 3 3 2 2 1 0 0 1 1 1 2 2 1 0 0 0 0 0 0 0 0 0 0 0 0 0 0 0 0 0 0
0 0 0 0 0 0 1 2 2 1 1 0 0 0 0 0 1 1 1 0 0 0 0 0 0 0 0 0 0 0 0 0 0 0 0 0 0 0
0 0 0 0 0 0 0 1 1 0 0 0 0 0 0 0 0 1 0 0 0 0 0 0 0 0 0 0 0 0 0 0 0 0 0 0 0 0
0 0 0 0 0 0 0 0 0 0 0 0 0 0 0 0 0 1 0 0 0 0 0 0 0 0 0 0 0 0 0 0 0 0 0 0 0 0
0 0 0 0 0 0 0 0 0 0 0 0 0 0 0 0 0 0 0 0 0 0 0 0 0 0 0 0 0 0 0 0 0 0 0 0 0 0
0 0 0 0 0 0 0 0 0 0 0 0 0 0 0 0 0 0 0 1 1 1 0 0 0 0 0 0 0 0 0 0 0 0 0 0 0 0
0 0 0 0 0 0 0 0 0 0 0 0 0 0 0 0 0 0 0 1 2 1 1 0 0 0 0 0 0 0 0 0 0 0 0 0 0 0
0 0 0 0 0 0 0 0 0 0 0 0 0 0 0 0 0 0 0 1 2 2 1 0 0 1 1 0 0 0 0 0 0 0 0 0 0 0
0 0 0 0 0 0 0 0 0 0 0 0 0 0 0 0 0 0 0 0 1 2 1 0 0 1 1 0 0 0 0 0 0 0 0 0 0 0
0 0 0 0 0 0 0 0 0 0 0 0 0 0 0 0 0 0 0 0 1 1 1 0 0 1 1 0 0 0 0 0 0 0 0 0 0 0
0 0 0 0 0 0 0 0 0 0 0 0 0 0 0 0 0 0 0 0 0 0 0 0 0 0 0 0 0 0 0 0 0 0 0 0 0 0
0 0 0 0 0 0 0 0 0 0 0 0 0 0 0 0 0 0 0 0 0 0 0 0 0 0 0 0 0 0 0 0 0 0 0 0 0 0
0 0 0 0 0 0 0 0 0 0 0 0 0 0 0 0 0 0 0 0 1 1 1 0 0 0 0 0 0 0 0 0 0 0 0 0 0 0
0 0 0 0 0 0 0 0 0 0 0 0 0 0 0 0 0 0 0 0 1 1 1 0 0 0 0 0 0 0 0 0 0 0 0 0 0 0
0 0 0 0 0 0 0 0 0 0 0 0 0 0 0 0 0 0 0 0 0 0 0 0 0 0 0 0 0 0 0 0 0 0 0 0 0 0
0 0 0 0 0 0 0 0 0 0 0 0 0 0 0 1 0 0 0 0 0 0 0 0 0 0 0 0 0 0 0 0 0 0 0 0 0 0
0 0 0 0 0 0 0 0 0 0 0 0 0 0 0 0 0 0 0 0 0 0 0 0 0 0 0 0 0 0 0 0 0 0 0 0 0 0
0 0 0 0 0 0 0 0 0 0 0 0 0 0 0 0 0 0 0 0 0 0 0 0 0 0 0 0 0 0 0 0 0 0 0 0 0 0
0 0 0 0 0 0 0 0 0 0 0 0 0 0 0 0 0 0 0 0 0 0 0 0 0 0 0 0 0 0 0 0 0 0 0 0 0 0
0 0 0 0 0 0 0 0 0 0 0 0 0 0 0 0 0 0 0 0 0 0 0 0 0 0 0 0 0 0 0 0 0 0 0 0 0 0
0 0 0 0 0 0 0 0 0 0 0 0 0 0 0 0 0 0 0 0 0 0 0 0 0 0 0 0 0 0 0 0 0 0 0 0 0 0
0 0 0 0 0 0 0 0 0 0 0 0 0 0 0 0 0 0 0 0 0 0 0 0 0 0 0 0 0 0 0 0 0 0 0 0 0 0
0 0 0 0 0 0 0 0 0 0 0 0 0 0 0 0 0 0 0 0 0 0 0 0 0 0 0 0 0 0 0 0 0 0 0 0 0 0
Wind_Speed
3 3 3 3 3 4 4 4 4 4 3 2 2 1 1 1 1 1 0 3 1 1 0 1 1 2 3 3 4 4 4 4 5 5 6 6 6 6
3 3 4 3 3 3 4 4 5 5 4 1 1 0 0 1 1 1 1 3 2 1 2 2 2 3 4 5 5 5 4 5 5 5 6 6 5 5
3 3 3 4 4 3 3 3 4 4 4 3 2 0 1 2 1 1 1 2 3 4 3 4 4 4 5 5 5 5 4 5 5 6 6 6 5 5
4 4 4 3 4 4 3 3 3 3 3 3 2 2 2 2 2 1 1 0 2 6 5 4 5 5 5 5 5 5 5 5 5 5 5 5 5 5
4 4 4 4 4 3 4 3 3 2 2 3 3 2 2 2 2 2 2 1 2 5 6 6 5 5 4 4 4 4 4 4 4 4 4 4 5 5
4 4 4 4 5 4 3 3 3 3 3 3 3 2 2 2 3 2 3 3 2 3 4 4 6 6 5 4 4 4 4 4 3 3 3 3 4 4
3 3 3 4 5 5 4 3 3 3 3 3 3 3 3 3 3 3 2 3 3 2 3 4 5 4 6 6 6 5 4 4 4 4 4 3 3 3
4 4 2 1 1 2 3 4 5 4 3 3 3 3 3 3 3 3 3 3 3 3 2 2 3 3 3 4 6 7 6 6 5 5 5 4 4 4
4 4 4 3 3 2 2 5 4 4 5 5 4 4 4 4 3 4 3 2 1 3 3 2 3 3 3 4 9 8 7 6 6 6 6 5 5 5
4 4 4 4 5 5 4 2 1 1 3 4 4 4 3 3 3 3 3 3 2 3 3 2 3 2 2 4 9 8 7 7 7 7 7 6 6 7
4 4 5 4 5 7 4 2 1 1 1 2 1 2 2 2 3 3 4 3 3 3 3 2 2 2 3 4 7 10 8 8 8 8 8 8 8 8
2 1 3 4 6 7 4 3 2 1 1 2 3 4 5 5 6 5 3 3 2 2 3 3 2 3 3 3 4 6 7 9 10 10 10 10 9 8
3 2 3 3 4 5 5 3 3 4 2 2 3 3 4 4 5 5 3 3 2 1 3 3 3 3 2 2 3 4 5 5 8 9 11 12 12 10
4 4 4 4 5 5 4 3 4 5 2 1 1 2 2 2 2 2 3 3 3 3 3 4 3 3 3 3 3 4 4 5 5 5 6 10 13 14
4 4 5 5 5 4 3 4 4 3 1 1 1 1 1 1 2 3 4 5 5 5 5 6 5 4 5 4 3 3 4 5 5 5 6 6 6 7
4 3 6 7 6 4 3 3 3 1 2 1 1 1 1 2 2 2 3 4 4 4 5 6 6 6 5 5 4 4 4 4 4 5 5 6 6 7
7 5 4 2 2 2 1 1 2 2 2 2 2 2 2 2 2 3 3 4 3 3 4 5 6 6 6 6 5 4 4 5 5 4 6 7 7 7
7 5 3 3 3 2 2 2 2 2 2 2 2 3 2 2 3 3 4 4 4 4 3 3 4 5 6 6 6 6 6 5 5 5 7 7 7 7
6 5 4 3 3 3 3 3 2 1 2 3 3 3 3 3 3 4 4 4 4 4 3 3 4 5 6 5 6 8 6 5 5 6 6 7 8 6
5 4 4 3 3 3 3 3 3 2 3 3 3 3 3 4 4 4 4 4 4 4 4 4 4 4 5 6 5 4 9 8 7 7 7 7 7 6
4 4 4 4 4 4 4 4 4 3 3 4 3 4 4 4 4 4 4 4 5 5 5 4 3 5 6 6 7 7 6 10 9 7 8 8 8 8
5 5 4 5 5 5 4 4 4 4 4 4 4 4 4 5 5 6 5 5 5 5 6 5 5 6 7 8 8 7 7 7 9 13 13 11 10 10
5 5 5 6 5 5 5 5 5 5 5 5 4 4 5 5 5 6 6 6 7 7 7 6 6 6 7 7 8 8 9 9 8 8 9 14 18 18
Wind_Direction
307 305 301 305 289 281 272 262 260 259 256 220 205 181 263 331 356 285 29 81 72 45 119 147 148 136 136 136 125 123 124 138 149 155 158 161 164 171
326 332 315 304 298 282 273 266 263 265 264 267 262 269 337 288 287 294 90 131 114 92 98 113 118 118 118 119 114 111 115 124 132 142 147 155 166 172
328 322 314 316 305 295 281 270 259 249 249 262 286 213 218 242 228 239 191 207 131 115 105 110 114 116 120 122 121 121 125 132 140 145 150 158 163 168
336 329 320 314 307 298 293 283 274 265 251 248 253 237 225 227 207 203 188 158 120 119 121 117 118 122 122 123 122 123 126 130 141 151 160 168 176 180
335 329 326 323 312 308 293 282 270 256 253 246 245 242 226 215 194 187 162 166 152 138 143 139 125 120 121 129 132 135 136 139 146 156 168 173 178 181
337 331 330 327 322 315 297 285 276 257 238 236 235 224 204 197 207 188 177 180 166 148 131 132 136 142 140 143 146 147 151 156 158 159 162 166 176 183
334 336 346 347 350 330 320 311 287 266 245 231 225 215 197 195 203 199 186 170 158 168 160 164 167 172 167 173 176 172 177 180 180 181 180 182 190 197
343 342 334 299 316 264 284 297 299 281 273 254 232 220 212 209 204 210 200 190 172 167 191 173 178 171 175 170 157 173 189 196 198 199 203 204 207 212
342 335 339 3 325 321 238 226 240 247 258 271 257 246 227 215 210 213 208 214 194 156 199 184 183 189 186 144 153 177 192 200 204 205 205 208 212 219
339 342 344 346 353 332 314 303 285 234 246 243 252 260 260 235 217 221 208 189 179 184 205 221 180 196 191 162 165 186 197 205 207 207 209 214 218 224
343 350 344 354 1 330 308 306 299 270 194 210 266 279 311 267 253 229 202 201 193 172 191 230 185 186 197 188 170 183 197 204 209 213 216 220 224 228
353 7 34 3 350 333 315 311 305 301 256 183 190 202 207 199 208 234 240 232 212 179 172 209 196 198 199 192 181 182 199 205 210 216 220 224 227 239
351 9 44 26 340 326 310 322 321 304 257 212 196 195 194 191 197 207 229 256 265 229 175 204 211 220 222 189 195 202 209 205 202 210 216 221 221 228
332 356 30 0 328 314 312 330 301 279 255 214 193 196 202 195 188 207 222 251 268 270 239 230 237 237 242 226 211 203 212 222 227 226 220 202 211 219
328 346 318 295 286 262 255 276 272 260 249 223 198 191 205 211 214 203 210 225 238 242 226 228 241 238 249 248 234 223 224 221 226 234 237 231 226 218
278 256 238 250 254 269 249 230 242 286 298 284 286 238 222 213 216 216 216 216 219 210 210 219 232 242 247 255 254 244 240 239 234 238 245 245 239 237
325 296 285 277 261 232 241 255 255 226 218 229 251 247 226 216 217 212 223 231 231 224 202 199 207 219 240 257 259 252 250 248 244 240 245 253 250 247
300 288 295 297 297 298 283 247 242 262 269 252 246 247 247 236 225 222 225 235 239 236 230 222 218 221 226 224 230 253 253 253 250 239 249 256 257 253
268 280 296 308 308 297 290 289 282 271 277 272 266 263 260 256 245 235 229 233 238 239 237 236 239 246 255 251 216 218 249 264 265 259 256 261 267 267
257 277 286 291 297 300 295 291 288 270 253 249 247 253 252 252 250 248 243 246 254 255 248 240 243 253 266 281 281 237 217 244 259 265 269 268 267 265
273 278 282 284 283 282 283 287 289 283 276 270 257 258 260 258 260 260 252 226 247 255 256 254 251 242 259 260 260 255 240 217 232 253 268 273 274 270
276 282 288 290 285 282 275 269 270 271 270 263 257 256 258 261 260 262 263 258 252 254 259 260 244 237 244 251 259 261 260 250 226 226 241 254 269 278
272 277 274 271 267 266 270 269 268 270 271 276 274 265 263 262 263 264 260 259 260 258 257 257 253 249 253 257 262 266 268 265 261 248 237 226 228 239